IK0EHZ-3 Weather Reports


time (UTC)temp
C
wind
direction
speed
KPH
gust
KPH
rain 1hr
cm
rain 24hr
cm
rain mn
cm
humidity
%
barometer
mb
20260507115002 20 209 6.4 12.9 0.00 0.05 0.03 75 1011.7
20260507114502 20 214 6.4 12.9 0.00 0.05 0.03 75 1011.9
20260507114003 20 210 6.4 12.9 0.00 0.05 0.03 74 1011.8
20260507113737 20 178 4.8 16.1 0.00 0.05 0.03 74 1011.9
20260507113005 20 137 6.4 16.1 0.00 0.05 0.03 73 1011.9
20260507112502 20 198 6.4 14.5 0.00 0.05 0.03 73 1012.0
20260507111958 20 220 6.4 14.5 0.00 0.05 0.03 73 1012.0
20260507111455 20 209 6.4 14.5 0.00 0.05 0.03 74 1012.0
20260507110958 20 209 8.0 14.5 0.00 0.05 0.03 74 1012.1
20260507110453 20 196 8.0 16.1 0.00 0.05 0.03 73 1012.1
20260507110231 20 222 8.0 16.1 0.00 0.05 0.03 73 1012.0
20260507105453 21 209 8.0 19.3 0.00 0.05 0.03 73 1012.0
20260507104952 21 215 8.0 19.3 0.00 0.05 0.03 73 1012.2
20260507104453 21 217 8.0 19.3 0.00 0.05 0.03 72 1012.2
20260507103952 21 200 8.0 16.1 0.00 0.05 0.03 72 1012.2
20260507103449 21 136 8.0 17.7 0.00 0.05 0.03 70 1012.2
20260507102950 21 207 8.0 17.7 0.00 0.05 0.03 70 1012.3
20260507102450 22 188 8.0 17.7 0.00 0.05 0.03 68 1012.2
20260507101950 23 201 6.4 16.1 0.00 0.05 0.03 67 1012.1
20260507101449 23 176 3.2 16.1 0.00 0.05 0.03 65 1012.1
20260507100949 23 260 3.2 6.4 0.00 0.05 0.03 62 1012.1
20260507100450 23 215 1.6 6.4 0.00 0.05 0.03 62 1012.0
20260507095944 23 330 0.0 1.6 0.00 0.05 0.03 61 1011.9
20260507095440 22 223 1.6 4.8 0.00 0.05 0.03 62 1011.9
20260507095217 22 345 1.6 4.8 0.00 0.05 0.03 64 1012.1
20260507094440 22 304 1.6 4.8 0.00 0.05 0.03 63 1012.1
20260507093946 21 92 3.2 9.7 0.00 0.05 0.03 66 1012.1
20260507093941 22 261 1.6 4.8 0.00 0.05 0.03 64 1012.1
20260507092937 21 114 4.8 11.3 0.00 0.05 0.03 65 1012.1
20260507092438 22 56 3.2 11.3 0.00 0.05 0.03 66 1012.0
20260507091938 22 6 3.2 8.0 0.00 0.05 0.03 66 1012.0
20260507091716 22 44 1.6 8.0 0.00 0.05 0.03 66 1012.0
20260507090936 22 352 1.6 6.4 0.00 0.05 0.03 66 1011.9
20260507090436 21 329 3.2 6.4 0.00 0.05 0.03 67 1012.0
20260507085933 21 283 1.6 6.4 0.00 0.05 0.03 68 1011.9
20260507085711 21 266 1.6 9.7 0.00 0.05 0.03 67 1012.0
20260507084933 21 27 3.2 11.3 0.00 0.05 0.03 66 1011.9
20260507084435 21 328 3.2 11.3 0.00 0.05 0.03 66 1012.0
20260507083934 21 54 3.2 6.4 0.00 0.05 0.03 66 1011.9
20260507083433 21 337 1.6 6.4 0.00 0.05 0.03 67 1011.9
20260507083216 21 211 1.6 4.8 0.00 0.05 0.03 66 1011.9
20260507082934 21 218 1.6 4.8 0.00 0.05 0.03 66 1011.9
20260507081934 21 81 1.6 9.7 0.00 0.05 0.03 67 1012.1
20260507081432 21 333 3.2 9.7 0.00 0.05 0.03 68 1012.2
20260507080932 21 9 3.2 8.0 0.00 0.05 0.03 67 1012.1
20260507080709 20 302 4.8 8.0 0.00 0.05 0.03 67 1012.1
20260507075931 20 301 4.8 8.0 0.00 0.05 0.03 68 1012.1
20260507075433 20 330 3.2 8.0 0.00 0.05 0.03 69 1012.1
20260507074932 20 326 3.2 9.7 0.00 0.05 0.03 68 1012.2
20260507074432 20 343 3.2 9.7 0.00 0.05 0.03 69 1012.2
20260507074211 20 324 3.2 9.7 0.00 0.05 0.03 72 1012.2
20260507073431 20 346 3.2 9.7 0.00 0.05 0.03 70 1012.3
20260507073209 20 40 4.8 8.0 0.00 0.05 0.03 69 1012.4
20260507072434 19 20 4.8 9.7 0.00 0.05 0.03 71 1012.4
20260507072211 19 29 4.8 11.3 0.00 0.05 0.03 71 1012.4
20260507071429 19 27 3.2 11.3 0.00 0.05 0.03 72 1012.5
20260507070930 19 330 4.8 8.0 0.00 0.08 0.03 72 1012.6
20260507070430 19 47 4.8 8.0 0.00 0.08 0.03 72 1012.5
20260507065930 19 51 3.2 8.0 0.00 0.08 0.03 73 1012.5
20260507065430 19 307 3.2 6.4 0.00 0.08 0.03 73 1012.4
20260507064930 19 16 3.2 8.0 0.00 0.08 0.03 72 1012.4
20260507064430 18 341 3.2 8.0 0.00 0.08 0.03 72 1012.4
20260507063930 18 48 3.2 6.4 0.00 0.08 0.03 75 1012.3
20260507063429 18 46 3.2 6.4 0.00 0.08 0.03 75 1012.3
20260507062923 18 38 3.2 8.0 0.00 0.08 0.03 76 1012.3
20260507062421 18 320 3.2 8.0 0.00 0.10 0.03 77 1012.4
20260507061921 18 35 3.2 6.4 0.00 0.10 0.03 76 1012.4
20260507061701 18 32 3.2 6.4 0.00 0.10 0.03 77 1012.4
20260507060922 18 42 4.8 8.0 0.00 0.13 0.03 79 1012.3
20260507060422 17 44 4.8 8.0 0.00 0.13 0.03 78 1012.4
20260507055920 17 43 3.2 4.8 0.00 0.13 0.03 80 1012.2
20260507055708 17 39 0.0 4.8 0.00 0.13 0.03 82 1012.2
20260507054927 16 27 1.6 3.2 0.00 0.15 0.03 85 1012.2
20260507054920 17 27 0.0 3.2 0.00 0.15 0.03 84 1012.3
20260507053915 16 21 1.6 3.2 0.00 0.15 0.03 87 1012.3
20260507053416 16 33 0.0 3.2 0.00 0.15 0.03 88 1012.3
20260507052913 15 30 0.0 1.6 0.00 0.15 0.03 88 1012.3
20260507052414 15 5 0.0 3.2 0.00 0.18 0.03 88 1012.2
20260507051910 15 4 1.6 4.8 0.00 0.18 0.03 88 1012.2
20260507051411 15 6 1.6 4.8 0.00 0.18 0.03 88 1012.2
20260507050907 15 351 3.2 6.4 0.00 0.18 0.03 88 1012.2
20260507050407 15 352 1.6 6.4 0.00 0.18 0.03 88 1012.2
20260507045908 15 7 0.0 3.2 0.00 0.18 0.03 89 1012.2
20260507045405 15 332 0.0 0.0 0.00 0.18 0.03 89 1012.1
20260507044901 15 332 0.0 0.0 0.00 0.18 0.03 89 1012.1
20260507044401 15 332 0.0 0.0 0.00 0.18 0.03 89 1012.0
20260507043901 15 332 0.0 1.6 0.00 0.18 0.03 89 1012.0
20260507043400 14 332 0.0 3.2 0.00 0.18 0.03 89 1012.2
20260507042900 14 347 0.0 3.2 0.00 0.18 0.03 88 1012.1
20260507042357 14 347 0.0 1.6 0.00 0.18 0.03 88 1012.0
20260507041855 14 67 0.0 0.0 0.03 0.18 0.03 88 1012.1
20260507041353 14 67 0.0 0.0 0.03 0.18 0.03 88 1012.0
20260507040852 14 67 0.0 0.0 0.03 0.18 0.03 87 1012.0
20260507040349 14 67 0.0 0.0 0.03 0.18 0.03 87 1012.0
20260507035847 14 67 0.0 1.6 0.03 0.18 0.03 87 1011.9
20260507035343 15 67 0.0 1.6 0.03 0.18 0.03 87 1011.9
20260507034835 15 67 0.0 1.6 0.03 0.18 0.03 87 1011.9
20260507034336 15 67 1.6 1.6 0.03 0.18 0.03 87 1011.9
20260507033833 15 67 1.6 1.6 0.03 0.18 0.03 86 1011.9
20260507033331 15 67 0.0 1.6 0.03 0.18 0.03 86 1011.9
20260507032830 15 67 0.0 3.2 0.03 0.18 0.03 86 1011.9
20260507032331 15 42 0.0 3.2 0.03 0.18 0.00 86 1011.9
20260507031831 15 60 0.0 3.2 0.00 0.15 0.00 86 1011.9
20260507031331 15 60 0.0 3.2 0.00 0.15 0.00 86 1011.8
20260507030836 15 60 0.0 1.6 0.00 0.15 0.00 86 1011.8
20260507030340 15 60 1.6 3.2 0.00 0.15 0.00 86 1011.7
20260507030336 15 60 0.0 1.6 0.00 0.15 0.00 86 1011.8
20260507025330 15 60 0.0 3.2 0.00 0.15 0.00 86 1011.7
20260507025106 15 60 0.0 1.6 0.00 0.15 0.00 86 1011.8
20260507024331 15 60 0.0 0.0 0.00 0.15 0.00 85 1011.9
20260507023831 15 60 0.0 0.0 0.00 0.15 0.00 85 1011.9
20260507023330 15 60 0.0 1.6 0.00 0.15 0.00 84 1011.9
20260507022830 15 60 0.0 1.6 0.00 0.15 0.00 84 1011.9
20260507022329 15 60 1.6 4.8 0.00 0.15 0.00 84 1011.9
20260507021826 15 60 1.6 6.4 0.00 0.15 0.00 84 1011.8
20260507021603 15 14 0.0 1.6 0.00 0.15 0.00 85 1012.0
20260507021325 15 40 1.6 6.4 0.00 0.15 0.00 84 1011.9
20260507020321 15 4 0.0 1.6 0.00 0.15 0.00 85 1011.9
20260507015818 15 39 0.0 0.0 0.00 0.15 0.00 85 1011.9
20260507015316 15 39 0.0 1.6 0.00 0.15 0.00 85 1011.9
20260507014814 15 39 0.0 1.6 0.00 0.15 0.00 85 1011.8
20260507014545 15 39 0.0 1.6 0.00 0.15 0.00 85 1011.9
20260507014046 15 40 0.0 1.6 0.00 0.15 0.00 85 1011.8
20260507013312 15 52 0.0 1.6 0.00 0.15 0.00 85 1011.8
20260507012812 15 52 1.6 3.2 0.00 0.15 0.00 85 1011.9
20260507012313 15 56 0.0 3.2 0.00 0.15 0.00 86 1011.8
20260507011810 15 38 0.0 1.6 0.00 0.15 0.00 86 1011.8
20260507011307 15 49 0.0 1.6 0.00 0.15 0.00 86 1011.9
20260507011103 15 49 1.6 9.7 0.00 0.15 0.00 87 1011.8
20260507010818 15 49 1.6 3.2 0.00 0.15 0.00 86 1011.9
20260507010033 15 8 1.6 9.7 0.00 0.15 0.00 87 1011.9
20260507005308 15 58 0.0 1.6 0.00 0.15 0.00 88 1012.0
20260507004806 15 58 0.0 1.6 0.00 0.15 0.00 88 1011.9
20260507004306 15 55 0.0 1.6 0.00 0.15 0.00 88 1011.9
20260507003806 15 55 0.0 1.6 0.00 0.15 0.00 88 1012.0
20260507003536 15 55 0.0 0.0 0.00 0.15 0.00 88 1011.9
20260507002804 15 55 0.0 0.0 0.00 0.15 0.00 88 1012.0
20260507002306 15 55 0.0 0.0 0.00 0.15 0.00 88 1011.9
20260507001805 15 55 0.0 0.0 0.00 0.15 0.00 88 1012.0
20260507001304 15 55 0.0 0.0 0.00 0.15 0.00 88 1011.9
20260507000804 15 55 0.0 0.0 0.00 0.15 0.00 88 1012.0
20260507000533 15 55 0.0 0.0 0.00 0.15 0.00 88 1011.9
20260506235804 15 55 0.0 0.0 0.00 0.15 0.00 88 1012.0
20260506235536 15 55 0.0 0.0 0.00 0.15 0.00 87 1012.0
20260506234804 15 55 0.0 0.0 0.00 0.15 0.00 88 1012.0
20260506234303 15 55 0.0 0.0 0.00 0.15 0.00 87 1012.1
20260506233804 15 55 0.0 0.0 0.00 0.15 0.00 87 1012.2
20260506233303 15 55 0.0 0.0 0.00 0.15 0.00 87 1012.2
20260506232803 15 55 0.0 0.0 0.00 0.15 0.00 87 1012.2
20260506232306 15 55 0.0 0.0 0.00 0.15 0.00 87 1012.1
20260506231803 15 55 0.0 1.6 0.00 0.15 0.00 87 1012.1
20260506231556 15 55 0.0 0.0 0.00 0.15 0.00 87 1012.3
20260506231320 15 55 0.0 1.6 0.00 0.15 0.00 87 1012.2
20260506230303 15 55 0.0 1.6 0.00 0.15 0.00 87 1012.4
20260506225803 15 55 0.0 4.8 0.00 0.15 0.00 87 1012.5
20260506225305 15 122 1.6 4.8 0.00 0.15 0.00 87 1012.6
20260506224804 15 51 1.6 4.8 0.00 0.15 0.00 88 1012.6
20260506224302 15 68 3.2 8.0 0.00 0.15 0.00 88 1012.6
20260506223802 15 62 3.2 8.0 0.00 0.15 0.00 89 1012.6
20260506223302 15 35 0.0 4.8 0.00 0.15 0.00 90 1012.6
20260506222802 15 75 0.0 0.0 0.00 0.15 0.00 90 1012.5
20260506222305 15 75 0.0 0.0 0.00 0.15 0.00 90 1012.6
20260506221803 15 75 0.0 0.0 0.03 0.15 0.00 89 1012.6
20260506221301 15 75 0.0 1.6 0.03 0.15 0.00 89 1012.5
20260506220758 15 75 0.0 3.2 0.05 0.15 0.00 89 1012.6
20260506220256 15 75 1.6 3.2 0.05 0.15 0.00 89 1012.6
20260506215801 15 120 0.0 0.0 0.05 0.15 0.15 88 1012.7
20260506215755 15 91 0.0 1.6 0.05 0.15 0.15 89 1012.6
20260506214753 15 120 0.0 1.6 0.05 0.15 0.15 88 1012.7
20260506214251 16 120 0.0 1.6 0.05 0.15 0.15 88 1012.8
20260506214030 16 113 1.6 3.2 0.05 0.15 0.15 88 1012.9
20260506213250 16 113 1.6 3.2 0.05 0.15 0.15 87 1013.0
20260506212751 16 121 1.6 3.2 0.05 0.15 0.15 87 1013.1
20260506212252 16 121 0.0 3.2 0.05 0.15 0.15 87 1013.1
20260506211749 16 221 0.0 1.6 0.03 0.15 0.15 87 1013.0
20260506211524 16 219 0.0 1.6 0.03 0.15 0.13 87 1013.0
20260506210759 16 228 0.0 1.6 0.00 0.13 0.13 87 1012.6
20260506210754 16 228 0.0 1.6 0.00 0.13 0.13 87 1012.8
20260506205746 16 58 0.0 1.6 0.00 0.13 0.13 87 1012.6
20260506205247 16 46 0.0 1.6 0.00 0.13 0.13 87 1012.4
20260506204748 16 47 0.0 1.6 0.00 0.13 0.13 87 1012.5
20260506204544 16 50 0.0 3.2 0.00 0.13 0.13 87 1012.4
20260506204300 16 47 1.6 3.2 0.00 0.13 0.13 87 1012.5
20260506204026 16 46 1.6 3.2 0.00 0.13 0.13 86 1012.4
20260506203044 16 124 0.0 0.0 0.00 0.13 0.13 86 1012.5
20260506202800 16 124 0.0 0.0 0.00 0.13 0.13 86 1012.5
20260506202017 16 124 0.0 0.0 0.00 0.13 0.13 85 1012.5
20260506201232 16 124 0.0 0.0 0.00 0.13 0.13 85 1012.6
20260506200735 16 124 0.0 0.0 0.00 0.13 0.13 85 1012.6
20260506200234 16 124 0.0 0.0 0.00 0.13 0.13 84 1012.7
20260506195731 16 124 0.0 0.0 0.00 0.13 0.13 84 1012.7
20260506195230 16 124 0.0 1.6 0.00 0.13 0.13 84 1012.7
20260506194729 16 124 1.6 4.8 0.00 0.13 0.13 84 1012.7
20260506194226 16 124 1.6 4.8 0.00 0.13 0.13 83 1012.8
20260506193725 16 126 1.6 4.8 0.00 0.13 0.13 83 1012.7
20260506193223 17 131 1.6 3.2 0.00 0.13 0.13 82 1012.7
20260506192723 17 124 1.6 3.2 0.00 0.13 0.13 81 1012.7
20260506192224 17 123 1.6 3.2 0.00 0.13 0.13 80 1012.7
20260506191721 17 134 1.6 3.2 0.00 0.13 0.13 79 1012.6
20260506191219 17 124 1.6 4.8 0.00 0.13 0.13 79 1012.6
20260506190718 17 127 1.6 4.8 0.00 0.13 0.13 79 1012.6
20260506190217 17 123 1.6 4.8 0.00 0.13 0.13 78 1012.6
20260506185958 17 121 1.6 3.2 0.00 0.13 0.13 78 1012.5
20260506185211 17 118 0.0 3.2 0.00 0.13 0.13 78 1012.4
20260506184712 17 118 0.0 1.6 0.00 0.13 0.13 77 1012.4
20260506184211 17 109 1.6 3.2 0.00 0.13 0.13 77 1012.4
20260506183944 17 103 1.6 4.8 0.00 0.13 0.13 77 1012.3
20260506183209 17 122 1.6 4.8 0.00 0.13 0.13 76 1012.4
20260506182709 17 115 1.6 4.8 0.00 0.13 0.13 76 1012.3
20260506182206 17 122 0.0 4.8 0.00 0.13 0.13 76 1012.3
20260506181707 17 117 0.0 1.6 0.00 0.13 0.13 76 1012.3
20260506181204 17 121 1.6 3.2 0.00 0.13 0.13 76 1012.2
20260506180702 17 127 1.6 4.8 0.00 0.13 0.13 76 1012.1
20260506180441 18 119 3.2 4.8 0.00 0.13 0.13 75 1012.1
20260506175706 18 110 1.6 4.8 0.00 0.13 0.13 75 1012.0
20260506175203 18 117 1.6 3.2 0.00 0.13 0.13 75 1011.9
20260506174702 18 103 1.6 3.2 0.00 0.13 0.13 74 1011.9
20260506174203 18 117 1.6 3.2 0.00 0.13 0.13 74 1012.0
20260506173704 18 122 1.6 3.2 0.00 0.13 0.13 74 1011.9
20260506173156 18 124 1.6 4.8 0.00 0.13 0.13 74 1011.9
20260506172655 18 130 3.2 4.8 0.00 0.13 0.13 73 1011.9
20260506172154 18 127 3.2 4.8 0.00 0.13 0.13 73 1011.9
20260506171656 18 104 1.6 4.8 0.00 0.13 0.13 73 1011.9
20260506171155 18 115 0.0 4.8 0.00 0.13 0.13 74 1011.9
20260506170705 18 233 0.0 3.2 0.00 0.13 0.13 74 1011.9
20260506170658 18 115 0.0 3.2 0.00 0.13 0.13 75 1011.9
20260506165655 19 134 0.0 1.6 0.00 0.13 0.13 73 1011.9
20260506165154 19 169 0.0 3.2 0.00 0.13 0.13 73 1012.0
20260506164655 19 172 0.0 3.2 0.00 0.13 0.13 72 1011.9
20260506164432 19 226 1.6 4.8 0.00 0.13 0.13 72 1012.0
20260506163654 19 174 1.6 4.8 0.00 0.13 0.13 71 1011.9
20260506163153 19 214 1.6 6.4 0.00 0.13 0.13 71 1012.1
20260506162652 19 247 1.6 6.4 0.00 0.13 0.13 71 1012.0
20260506162431 19 208 1.6 4.8 0.00 0.13 0.13 71 1012.0
20260506161650 19 215 1.6 4.8 0.00 0.13 0.13 71 1012.0
20260506161150 19 252 1.6 4.8 0.00 0.13 0.13 70 1012.0
20260506160648 19 212 1.6 8.0 0.00 0.13 0.13 70 1012.0
20260506160148 19 221 1.6 8.0 0.00 0.13 0.13 69 1012.0
20260506155648 19 135 1.6 8.0 0.00 0.13 0.13 70 1012.1
20260506155148 19 131 3.2 9.7 0.00 0.13 0.13 69 1012.1
20260506154648 19 205 3.2 9.7 0.00 0.13 0.13 69 1012.1
20260506154148 20 152 3.2 8.0 0.00 0.13 0.13 69 1012.2
20260506153649 20 245 1.6 8.0 0.00 0.13 0.13 68 1012.3
20260506153150 20 218 1.6 9.7 0.00 0.13 0.13 68 1012.2
20260506152648 20 252 1.6 9.7 0.00 0.13 0.13 67 1012.2
20260506152147 20 208 3.2 9.7 0.00 0.13 0.13 67 1012.3
20260506151646 20 148 4.8 9.7 0.00 0.13 0.13 66 1012.3
20260506151146 20 156 4.8 11.3 0.00 0.13 0.13 66 1012.3
20260506150924 20 219 3.2 11.3 0.00 0.13 0.13 66 1012.3
20260506150146 20 215 1.6 6.4 0.00 0.13 0.13 65 1012.3
20260506145652 20 114 1.6 6.4 0.00 0.13 0.13 67 1012.1
20260506145143 20 169 3.2 6.4 0.00 0.13 0.13 66 1012.2
20260506144914 20 227 3.2 9.7 0.00 0.13 0.13 67 1012.1
20260506144142 20 212 3.2 9.7 0.00 0.13 0.13 66 1012.2
20260506143643 20 225 4.8 9.7 0.00 0.13 0.13 66 1012.2
20260506143141 20 209 4.8 11.3 0.00 0.13 0.13 65 1012.2
20260506142641 20 226 4.8 11.3 0.00 0.13 0.13 65 1012.4
20260506142414 21 146 4.8 11.3 0.00 0.13 0.13 66 1012.3
20260506141914 21 142 6.4 11.3 0.00 0.13 0.13 65 1012.5
20260506141137 21 185 4.8 11.3 0.00 0.13 0.13 67 1012.5
20260506140904 21 157 6.4 14.5 0.00 0.13 0.13 65 1012.5
20260506140136 21 160 6.4 14.5 0.00 0.13 0.13 64 1012.4
20260506135636 21 186 6.4 17.7 0.00 0.13 0.13 63 1012.4
20260506135132 21 195 6.4 17.7 0.00 0.13 0.13 63 1012.6
20260506134632 21 178 6.4 12.9 0.00 0.13 0.13 65 1012.7
20260506134132 21 199 6.4 12.9 0.00 0.13 0.13 65 1012.5
20260506133632 21 237 6.4 12.9 0.00 0.13 0.13 66 1012.3
20260506133133 21 241 6.4 12.9 0.00 0.13 0.13 66 1012.3
20260506133046 21 202 6.4 12.9 0.00 0.13 0.13 64 1012.2
20260506133019 21 196 6.4 12.9 0.00 0.13 0.13 62 1012.3
20260506131641 21 219 6.4 14.5 0.00 0.13 0.13 61 1012.3
20260506131132 21 185 6.4 16.1 0.00 0.13 0.13 63 1012.3
20260506130634 22 214 8.0 16.1 0.00 0.13 0.13 63 1012.3
20260506130126 22 218 8.0 17.7 0.00 0.13 0.13 62 1012.2
20260506125854 22 244 8.0 17.7 0.00 0.13 0.13 58 1012.3
20260506125126 22 200 8.0 16.1 0.00 0.13 0.13 60 1012.2
20260506124623 22 212 8.0 17.7 0.00 0.13 0.13 58 1012.1
20260506124120 22 188 8.0 17.7 0.00 0.13 0.13 55 1012.2
20260506123620 22 205 6.4 14.5 0.00 0.13 0.13 55 1012.0
20260506123120 22 243 8.0 17.7 0.00 0.13 0.13 54 1012.0
20260506122617 22 238 8.0 19.3 0.00 0.13 0.13 52 1012.0
20260506122118 22 206 6.4 19.3 0.00 0.13 0.13 53 1012.1
20260506121615 22 231 6.4 17.7 0.00 0.13 0.13 54 1012.0
20260506121115 22 223 6.4 12.9 0.00 0.13 0.13 51 1012.0
20260506120616 22 219 6.4 16.1 0.00 0.13 0.13 52 1011.9
20260506120116 23 214 6.4 19.3 0.00 0.13 0.13 51 1012.0
20260506115613 23 102 6.4 19.3 0.00 0.13 0.13 53 1012.1